Time,TemperatureF,DewpointF,PressureIn,WindDirection,WindDirectionDegrees,WindSpeedMPH,WindSpeedGustMPH,Humidity,HourlyPrecipIn,Conditions,Clouds,dailyrainin,SoftwareType,DateUTC
2013-03-01 07:17:00,60.1,16.0,30.32,NE,44,8.0,-999.0,18,-99.99,,,0.00,weatherlink.com 1.10,2013-03-01 15:17:00,
2013-03-01 07:20:00,60.3,15.0,30.32,NE,55,6.0,-999.0,17,-99.99,,,0.00,weatherlink.com 1.10,2013-03-01 15:20:00,
2013-03-01 07:35:00,60.7,17.0,30.33,NE,51,6.0,-999.0,18,-99.99,,,0.00,weatherlink.com 1.10,2013-03-01 15:35:00,
2013-03-01 07:50:00,61.5,17.0,30.34,ENE,61,4.0,-999.0,18,-99.99,,,0.00,weatherlink.com 1.10,2013-03-01 15:50:00,
2013-03-01 08:05:00,62.5,18.0,30.34,NE,51,4.0,-999.0,18,-99.99,,,0.00,weatherlink.com 1.10,2013-03-01 16:05:00,
2013-03-01 08:20:00,63.3,20.0,30.34,ENE,71,3.0,-999.0,19,-99.99,,,0.00,weatherlink.com 1.10,2013-03-01 16:20:00,
2013-03-01 08:34:00,64.0,21.0,30.35,ENE,65,1.0,-999.0,19,-99.99,,,0.00,weatherlink.com 1.10,2013-03-01 16:34:00,
2013-03-01 08:49:00,64.7,21.0,30.35,ENE,63,0.0,-999.0,19,-99.99,,,0.00,weatherlink.com 1.10,2013-03-01 16:49:00,
2013-03-01 09:19:00,66.3,21.0,30.34,ENE,59,3.0,-999.0,18,-99.99,,,0.00,weatherlink.com 1.10,2013-03-01 17:19:00,
2013-03-01 09:50:00,66.5,24.0,30.34,NE,49,0.0,-999.0,20,-99.99,,,0.00,weatherlink.com 1.10,2013-03-01 17:50:00,
2013-03-01 10:05:00,67.4,24.0,30.34,NE,54,2.0,-999.0,19,-99.99,,,0.00,weatherlink.com 1.10,2013-03-01 18:05:00,
2013-03-01 10:20:00,68.7,25.0,30.34,NE,49,0.0,-999.0,19,-99.99,,,0.00,weatherlink.com 1.10,2013-03-01 18:20:00,
2013-03-01 10:35:00,70.3,25.0,30.34,ENE,70,0.0,-999.0,18,-99.99,,,0.00,weatherlink.com 1.10,2013-03-01 18:35:00,
2013-03-01 10:50:00,70.7,22.0,30.33,ENE,60,1.0,-999.0,16,-99.99,,,0.00,weatherlink.com 1.10,2013-03-01 18:50:00,
2013-03-01 11:09:00,70.9,25.0,30.33,ENE,64,0.0,-999.0,18,-99.99,,,0.00,weatherlink.com 1.10,2013-03-01 19:09:00,
2013-03-01 11:20:00,72.0,23.0,30.33,ENE,65,0.0,-999.0,16,-99.99,,,0.00,weatherlink.com 1.10,2013-03-01 19:20:00,
2013-03-01 11:35:00,71.8,25.0,30.32,NE,46,0.0,-999.0,17,-99.99,,,0.00,weatherlink.com 1.10,2013-03-01 19:35:00,
2013-03-01 11:50:00,73.4,29.0,30.32,SSW,207,0.0,-999.0,19,-99.99,,,0.00,weatherlink.com 1.10,2013-03-01 19:50:00,
2013-03-01 12:05:00,72.4,28.0,30.31,SSW,192,0.0,-999.0,19,-99.99,,,0.00,weatherlink.com 1.10,2013-03-01 20:05:00,
2013-03-01 12:20:00,73.3,30.0,30.30,SSW,192,0.0,-999.0,20,-99.99,,,0.00,weatherlink.com 1.10,2013-03-01 20:20:00,
2013-03-01 12:35:00,74.5,27.0,30.29,SSW,194,0.0,-999.0,17,-99.99,,,0.00,weatherlink.com 1.10,2013-03-01 20:35:00,
2013-03-01 12:50:00,74.0,25.0,30.29,SSW,209,0.0,-999.0,16,-99.99,,,0.00,weatherlink.com 1.10,2013-03-01 20:50:00,
2013-03-01 13:05:00,73.7,26.0,30.28,SW,227,2.0,-999.0,17,-99.99,,,0.00,weatherlink.com 1.10,2013-03-01 21:05:00,
2013-03-01 13:20:00,74.6,27.0,30.28,WSW,237,0.0,-999.0,17,-99.99,,,0.00,weatherlink.com 1.10,2013-03-01 21:20:00,
2013-03-01 13:35:00,74.2,27.0,30.27,SW,228,0.0,-999.0,17,-99.99,,,0.00,weatherlink.com 1.10,2013-03-01 21:35:00,
2013-03-01 13:50:00,74.0,25.0,30.27,SW,222,0.0,-999.0,16,-99.99,,,0.00,weatherlink.com 1.10,2013-03-01 21:50:00,
2013-03-01 14:05:00,73.7,25.0,30.27,SSW,213,2.0,-999.0,16,-99.99,,,0.00,weatherlink.com 1.10,2013-03-01 22:05:00,
2013-03-01 14:20:00,73.5,25.0,30.27,SW,227,1.0,-999.0,16,-99.99,,,0.00,weatherlink.com 1.10,2013-03-01 22:20:00,
2013-03-01 14:35:00,73.0,24.0,30.26,SW,234,3.0,-999.0,16,-99.99,,,0.00,weatherlink.com 1.10,2013-03-01 22:35:00,
2013-03-01 14:50:00,73.5,25.0,30.26,SW,215,0.0,-999.0,16,-99.99,,,0.00,weatherlink.com 1.10,2013-03-01 22:50:00,
2013-03-01 15:05:00,73.3,23.0,30.25,SSW,196,0.0,-999.0,15,-99.99,,,0.00,weatherlink.com 1.10,2013-03-01 23:05:00,
2013-03-01 15:20:00,73.5,23.0,30.24,SW,232,0.0,-999.0,15,-99.99,,,0.00,weatherlink.com 1.10,2013-03-01 23:20:00,
2013-03-01 15:35:00,73.1,23.0,30.24,SW,220,2.0,-999.0,15,-99.99,,,0.00,weatherlink.com 1.10,2013-03-01 23:35:00,
2013-03-01 15:50:00,73.2,24.0,30.24,SSW,208,1.0,-999.0,16,-99.99,,,0.00,weatherlink.com 1.10,2013-03-01 23:50:00,
2013-03-01 16:05:00,72.4,22.0,30.24,SW,224,1.0,-999.0,15,-99.99,,,0.00,weatherlink.com 1.10,2013-03-02 00:05:00,
2013-03-01 16:20:00,71.5,23.0,30.24,WSW,242,1.0,-999.0,16,-99.99,,,0.00,weatherlink.com 1.10,2013-03-02 00:20:00,
2013-03-01 16:35:00,70.7,24.0,30.24,SW,232,1.0,-999.0,17,-99.99,,,0.00,weatherlink.com 1.10,2013-03-02 00:35:00,
2013-03-01 16:50:00,71.0,22.0,30.23,WSW,240,0.0,-999.0,16,-99.99,,,0.00,weatherlink.com 1.10,2013-03-02 00:50:00,
2013-03-01 17:05:00,70.3,23.0,30.24,WSW,252,0.0,-999.0,17,-99.99,,,0.00,weatherlink.com 1.10,2013-03-02 01:05:00,
2013-03-01 17:20:00,69.5,23.0,30.24,West,263,0.0,-999.0,17,-99.99,,,0.00,weatherlink.com 1.10,2013-03-02 01:20:00,
2013-03-01 17:35:00,68.6,22.0,30.24,West,267,0.0,-999.0,17,-99.99,,,0.00,weatherlink.com 1.10,2013-03-02 01:35:00,
2013-03-01 17:49:00,68.4,22.0,30.24,West,267,0.0,-999.0,17,-99.99,,,0.00,weatherlink.com 1.10,2013-03-02 01:49:00,
2013-03-01 18:04:00,68.4,22.0,30.25,West,267,0.0,-999.0,17,-99.99,,,0.00,weatherlink.com 1.10,2013-03-02 02:04:00,
2013-03-01 18:19:00,67.8,21.0,30.25,West,267,0.0,-999.0,17,-99.99,,,0.00,weatherlink.com 1.10,2013-03-02 02:19:00,
2013-03-01 18:35:00,67.6,22.0,30.25,West,271,0.0,-999.0,18,-99.99,,,0.00,weatherlink.com 1.10,2013-03-02 02:35:00,
2013-03-01 18:50:00,66.7,22.0,30.25,West,273,0.0,-999.0,18,-99.99,,,0.00,weatherlink.com 1.10,2013-03-02 02:50:00,
2013-03-01 19:05:00,65.9,21.0,30.25,NW,323,0.0,-999.0,18,-99.99,,,0.00,weatherlink.com 1.10,2013-03-02 03:05:00,
2013-03-01 19:20:00,65.4,21.0,30.25,North,350,0.0,-999.0,18,-99.99,,,0.00,weatherlink.com 1.10,2013-03-02 03:20:00,
2013-03-01 19:35:00,65.4,21.0,30.25,North,360,0.0,-999.0,18,-99.99,,,0.00,weatherlink.com 1.10,2013-03-02 03:35:00,
2013-03-01 19:50:00,65.4,21.0,30.26,NNE,12,0.0,-999.0,18,-99.99,,,0.00,weatherlink.com 1.10,2013-03-02 03:50:00,
2013-03-01 20:05:00,65.6,21.0,30.26,NNE,23,4.0,-999.0,18,-99.99,,,0.00,weatherlink.com 1.10,2013-03-02 04:05:00,
2013-03-01 20:21:00,65.7,21.0,30.26,NNE,26,0.0,-999.0,18,-99.99,,,0.00,weatherlink.com 1.10,2013-03-02 04:21:00,
2013-03-01 20:35:00,65.8,21.0,30.27,NNE,31,0.0,-999.0,18,-99.99,,,0.00,weatherlink.com 1.10,2013-03-02 04:35:00,
2013-03-01 20:50:00,65.8,21.0,30.27,NNE,28,0.0,-999.0,18,-99.99,,,0.00,weatherlink.com 1.10,2013-03-02 04:50:00,
2013-03-01 21:05:00,65.5,21.0,30.27,NE,34,0.0,-999.0,18,-99.99,,,0.00,weatherlink.com 1.10,2013-03-02 05:05:00,
2013-03-01 21:20:00,65.9,21.0,30.28,NE,51,2.0,-999.0,18,-99.99,,,0.00,weatherlink.com 1.10,2013-03-02 05:20:00,
2013-03-01 21:35:00,66.3,21.0,30.27,ENE,61,4.0,-999.0,18,-99.99,,,0.00,weatherlink.com 1.10,2013-03-02 05:35:00,
2013-03-01 21:50:00,67.4,22.0,30.27,ENE,65,2.0,-999.0,18,-99.99,,,0.00,weatherlink.com 1.10,2013-03-02 05:50:00,
2013-03-01 22:07:00,68.0,23.0,30.27,ENE,65,1.0,-999.0,18,-99.99,,,0.00,weatherlink.com 1.10,2013-03-02 06:07:00,
2013-03-01 22:20:00,68.3,23.0,30.27,ENE,68,0.0,-999.0,18,-99.99,,,0.00,weatherlink.com 1.10,2013-03-02 06:20:00,
2013-03-01 22:35:00,68.7,22.0,30.27,ENE,69,0.0,-999.0,17,-99.99,,,0.00,weatherlink.com 1.10,2013-03-02 06:35:00,
2013-03-01 22:50:00,68.6,23.0,30.27,ENE,69,0.0,-999.0,18,-99.99,,,0.00,weatherlink.com 1.10,2013-03-02 06:50:00,
2013-03-01 23:05:00,68.7,23.0,30.27,ENE,69,0.0,-999.0,18,-99.99,,,0.00,weatherlink.com 1.10,2013-03-02 07:05:00,
2013-03-01 23:20:00,68.4,23.0,30.27,ENE,70,0.0,-999.0,18,-99.99,,,0.00,weatherlink.com 1.10,2013-03-02 07:20:00,
2013-03-01 23:35:00,68.3,23.0,30.27,ENE,70,0.0,-999.0,18,-99.99,,,0.00,weatherlink.com 1.10,2013-03-02 07:35:00,
2013-03-01 23:50:00,68.5,23.0,30.27,ENE,70,0.0,-999.0,18,-99.99,,,0.00,weatherlink.com 1.10,2013-03-02 07:50:00,